Regional Weather Roundup
Issued by NWS

Home | Current Version | Previous Version | Graphics & Text | Print | Product List | Glossary On
Versions: 1 2 3 4 5 6 7 8 9 10 11 12 13 14 15 16 17 18 19 20 21 22 23 24 25 26 27 28 29 30 31 32 33 34 35 36 37 38 39 40 41 42 43 44 45 46 47 48 49 50
000
ASUS43 KLMK 270902
RWRKY
KENTUCKY REGIONAL WEATHER ROUNDUP
NATIONAL WEATHER SERVICE LOUISVILLE KY
500 AM EDT SAT MAY 27 2017

NOTE "FAIR" INDICATES FEW OR NO CLOUDS BELOW 12,000 FEET
WITH NO SIGNIFICANT WEATHER AND/OR OBSTRUCTIONS TO VISIBILITY.

KYZ001>023-026-027-061>063-070>075-271000-
WESTERN AND SOUTH CENTRAL KENTUCKY

CITY           SKY/WX    TMP DP  RH WIND       PRES   REMARKS
PADUCAH        MOCLDY    69  66  90 CALM      29.84S
HENDERSON      MOCLDY    69  67  93 W5        29.84F
OWENSBORO      MOCLDY    70  67  90 S3        29.85F
HOPKINSVILLE   CLOUDY    72  63  73 S5        29.87F
BOWLING GREEN  CLOUDY    75  63  66 SW6       29.88S
GLASGOW        NOT AVBL
$$

KYZ024-025-028>034-038-045-046-053-271000-
NORTH CENTRAL KENTUCKY

CITY           SKY/WX    TMP DP  RH WIND       PRES   REMARKS
LOUISVILLE/SDF CLOUDY    74  66  76 W6        29.85S
LOUISVILLE/LOU CLOUDY    74  67  78 SW6       29.86R
FORT KNOX      MOCLDY    68  64  86 CALM      29.85R
$$

KYZ035>037-039>044-047>052-055>060-089>105-271000-
NORTHEAST KENTUCKY

CITY           SKY/WX    TMP DP  RH WIND       PRES   REMARKS
LEXINGTON      CLOUDY    70  61  73 SW5       29.88R
COVINGTON      CLOUDY    71  64  78 SW5       29.84R
FRANKFORT      CLOUDY    71  61  70 SW6       29.86R
$$

KYZ054-064>069-076>088-106>120-271000-
SOUTHEAST KENTUCKY

CITY           SKY/WX    TMP DP  RH WIND       PRES   REMARKS
JACKSON        CLOUDY    69  59  70 VRB3      29.92S
LONDON         CLOUDY    72  59  63 SW8       29.93S
SOMERSET       CLOUDY    68  59  73 S3        29.92S
MIDDLESBORO    CLOUDY    64  62  96 CALM      29.97S
MONTICELLO     CLOUDY    72  62  71 W12       29.93S
$$




USA.gov is the U.S. government's official web portal to all federal, state and local government web resources and services.